Weather Service Report


502 
ASUS43 KBIS 250110
RWRND 

NORTH DAKOTA REGIONAL WEATHER ROUNDUP
NATIONAL WEATHER SERVICE BISMARCK ND
800 PM CDT MON JUL 24 2017

NOTE: "FAIR" INDICATES FEW OR NO CLOUDS BELOW 12,000 FEET WITH NO
SIGNIFICANT WEATHER AND/OR OBSTRUCTIONS TO VISIBILITY.


NDZ001>003-009>011-017-250200-
NORTHWEST NORTH DAKOTA
  
CITY           SKY/WX    TMP DP  RH WIND       PRES   REMARKS
WILLISTON      MOSUNNY   87  50  27 N13       29.79R                  
MINOT          MOSUNNY   92  62  36 S16       29.74R HX  92           
MINOT AFB      MOSUNNY   87  63  45 N14       29.74R                  
$$
 
NDZ018>021-031>035-040>046-250200-
SOUTHWEST NORTH DAKOTA
  
CITY           SKY/WX    TMP DP  RH WIND       PRES   REMARKS
BISMARCK       SUNNY     83  67  58 S15       29.80S                  
DICKINSON      PTSUNNY   89  66  46 VRB5      29.76R HX  91           
GARRISON         N/A     85  64  49 SE12      29.74R                  
HETTINGER ARPT MOSUNNY   88  55  32 SE9       29.81S                  
$$
 
NDZ004>008-012>016-024-026-027-054-250200-
NORTHEAST NORTH DAKOTA
  
CITY           SKY/WX    TMP DP  RH WIND       PRES   REMARKS
GRAND FORKS    MOSUNNY   77  66  68 S12       29.85S                  
GRND FRKS AFB  SUNNY     76  63  65 S15       29.85F                  
DEVILS LAKE    MOSUNNY   78  65  63 S15G23    29.83S                  
$$
 
NDZ022-023-025-028>030-036>039-047>053-250200-
SOUTHEAST NORTH DAKOTA
  
CITY           SKY/WX    TMP DP  RH WIND       PRES   REMARKS
FARGO          CLOUDY    77  63  61 S14G21    29.88S                  
JAMESTOWN      SUNNY     78  64  61 S14       29.85F                  
$$ 

  


750 
ASUS43 KBIS 250110
RWRBIS

NWR BROADCAST TEXT
NATIONAL WEATHER SERVICE BISMARCK ND
800 PM CDT MON JUL 24 2017

NOTE: "FAIR" INDICATES FEW OR NO CLOUDS BELOW 12,000 FEET WITH NO
SIGNIFICANT WEATHER AND/OR OBSTRUCTIONS TO VISIBILITY.

  
CITY           SKY/WX    TMP DP  RH WIND       PRES   REMARKS
WILLISTON      MOSUNNY   87  50  27 N13       29.79R                  
MINOT          MOSUNNY   92  62  36 S16       29.74R HX  92           
MINOT AFB      MOSUNNY   87  63  45 N14       29.74R                  
BISMARCK       SUNNY     83  67  58 S15       29.80S                  
DICKINSON      PTSUNNY   89  66  46 VRB5      29.76R HX  91           
GARRISON         N/A     85  64  49 SE12      29.74R                  
HETTINGER ARPT MOSUNNY   88  55  32 SE9       29.81S                  
JAMESTOWN      SUNNY     78  64  61 S14       29.85F                  
HAZEN          FAIR      88  64  45 SE15      29.76R                  
LINTON           N/A    N/A N/A N/A SE14G20   29.82F                  
MANDAN         FAIR      81  66  61 S13       29.81S                  
STANLEY        FAIR      81  57  44 N13       29.83R                  
TIOGA          FAIR      81  50  34 N15       29.82R                  
WATFORD CITY   FAIR      86  54  32 N12       29.78R                  
$$
  
CITY           SKY/WX    TMP DP  RH WIND       PRES   REMARKS
GRAND FORKS    MOSUNNY   77  66  68 S12       29.85S                  
GRAND FORKS AF SUNNY     76  63  65 S15       29.85F                  
DEVILS LAKE    MOSUNNY   78  65  63 S15G23    29.83S                  
FARGO          CLOUDY    77  63  61 S14G21    29.88S                  
CAVALIER       FAIR      77  64  65 S16       29.81S                  
GRAFTON        FAIR      75  64  69 S14       29.86S                  
GWINNER        CLEAR     75  66  73 SE7       29.89S                  
LANGDON        FAIR      75  70  83 S18       29.84R                  
ROLLA            N/A     77  68  73 S13G18    29.80S                  
$$
  
CITY           SKY/WX    TMP DP  RH WIND       PRES   REMARKS
ABERDEEN       PTSUNNY   75  68  78 E15       29.86S                  
MOBRIDGE       SUNNY     82  68  62 SE20G25   29.78F                  
BUFFALO          N/A     94  51  23 N8        29.75R HX  91           
RAPID CITY     SUNNY     95  48  20 E7        29.83R HX  91           
GLASGOW        MOSUNNY   85  41  21 VRB3      29.83F                  
SIDNEY         MOSUNNY   89  52  28 NW10      29.79S                  
WOLF POINT     PTSUNNY   89  43  20 NW9       29.82R                  
GLENDIVE       MOSUNNY   90  52  27 N9        29.82S                  
MILES CITY     SUNNY     91  44  19 N8        29.82F                  
BAKER          SUNNY     93  47  20 N15       29.83S                  
$$
  
CITY           SKY/WX    TMP DP  RH WIND       PRES   REMARKS
BILLINGS       MOSUNNY   89  45  21 NE8       29.87R                  
GREAT FALLS    SUNNY     86  44  23 NE12      29.86S                  
REGINA         MOSUNNY   75  41  29 W16G24    29.82R                  
ESTEVAN        PTSUNNY   79  54  41 NW12      29.80S                  
$$

  

Return to Home page


Western Regional Climate Center, wrcc@dri.edu